Lid_Strength_Index
1 1 1 1 1 0 0 0 0 0 0 0 0 0 -0 -0 0 4 8 5 4 -2 2 6 6 7 7 7 7 9 12 14 12 13 11 10 10 9 9 9 9 8 8 7 8
1 1 1 1 1 1 1 1 1 1 1 0 0 0 0 0 5 7 3 -1 -3 -1 6 7 8 8 9 8 8 10 13 13 11 12 11 10 10 9 9 9 9 9 8 8 8
1 1 1 1 1 1 1 1 1 1 1 1 1 0 0 2 10 10 -1 -1 -3 1 6 7 8 8 10 9 9 11 12 11 11 11 10 10 10 9 10 10 9 9 8 9 9
1 1 1 1 1 1 1 1 1 1 1 1 1 1 0 5 13 9 -2 -2 -2 6 7 8 8 10 11 11 10 12 10 11 10 10 10 10 10 10 10 7 7 8 8 8 9
1 1 1 1 1 1 1 1 0 1 1 1 1 1 6 12 10 3 -1 -1 6 7 8 9 10 10 12 12 11 12 11 10 10 11 10 10 10 10 11 8 8 9 9 9 9
1 1 1 1 1 1 1 1 0 0 1 1 1 1 10 13 8 2 2 5 6 7 9 9 10 10 12 12 12 12 11 11 11 11 11 11 10 11 10 8 9 10 9 9 10
1 1 1 1 1 1 1 1 1 1 1 1 1 3 11 10 7 5 5 6 7 8 10 10 10 10 11 12 11 12 13 13 13 12 12 12 13 13 9 10 10 10 10 10 10
2 2 2 2 2 1 1 1 1 2 1 1 1 6 13 8 7 7 8 9 9 9 9 9 9 10 11 11 13 14 15 16 14 13 13 12 15 11 11 12 11 11 11 11 10
2 2 2 2 2 2 1 1 2 1 1 1 6 11 13 6 9 9 9 10 9 10 9 9 10 12 12 15 16 16 18 18 16 13 13 13 15 12 12 13 12 11 11 10 9
2 2 2 2 2 2 2 3 3 4 3 3 6 13 12 12 9 10 10 9 11 11 11 11 13 15 16 16 18 18 19 18 17 14 15 15 15 13 11 13 12 11 11 10 10
2 2 2 2 2 1 5 9 10 11 11 12 12 13 12 10 9 11 10 10 11 12 14 13 16 17 14 14 16 17 18 18 16 14 15 15 15 14 13 13 12 11 11 11 11
1 1 1 1 1 2 8 10 11 10 13 10 11 11 10 9 12 11 9 12 13 15 14 15 18 15 15 15 15 16 17 17 15 14 16 16 16 13 13 12 12 11 11 11 11
2 2 2 2 3 6 10 10 9 10 14 12 11 12 12 10 12 11 10 12 14 15 15 16 15 14 15 16 16 17 18 17 17 16 16 17 17 16 14 14 12 12 11 11 11
2 2 3 2 5 8 9 9 9 11 15 14 15 13 13 12 14 11 11 12 15 15 16 16 15 15 17 17 15 17 15 16 17 18 20 17 20 16 13 13 13 13 12 13 12
4 3 3 3 5 6 7 8 8 12 20 13 15 12 12 15 15 14 12 13 16 15 15 16 16 17 17 15 15 16 15 16 17 18 19 19 20 18 16 16 14 12 12 12 12
4 4 3 4 5 6 7 7 8 13 19 13 15 15 15 15 15 14 14 13 14 16 16 16 15 15 15 15 15 15 16 17 18 19 22 19 19 19 17 15 15 13 13 12 12
5 5 3 3 5 5 5 5 13 17 10 14 16 15 16 16 15 15 15 16 16 18 19 18 17 16 15 16 15 15 18 21 22 22 21 19 20 17 15 14 13 13 12 13 13
5 5 4 3 5 4 4 9 17 13 13 10 10 12 13 13 14 15 17 17 15 16 18 19 17 16 15 15 16 16 16 18 22 23 18 20 20 17 14 13 14 13 13 13 13
6 7 7 4 4 3 6 14 14 13 11 11 11 13 14 13 12 13 13 11 11 14 15 16 16 16 15 15 15 17 17 15 17 21 22 18 16 14 15 14 14 14 13 14 14
9 9 7 4 3 4 9 13 11 9 9 9 14 12 15 14 14 15 15 15 15 14 13 13 16 15 15 15 16 14 14 17 17 21 22 18 19 17 14 12 14 15 14 14 13
9 11 8 2 2 7 13 13 11 8 7 10 11 12 12 13 11 13 13 10 11 12 12 12 13 14 13 16 15 16 16 15 15 16 20 21 18 13 14 16 16 16 15 15 15
10 15 6 2 9 8 11 9 7 9 7 8 9 10 12 11 12 12 13 10 8 10 11 10 13 16 14 11 12 13 13 13 16 16 15 15 15 10 15 15 16 16 16 15 15
10 12 6 3 12 11 9 10 8 9 9 9 10 9 9 11 14 11 11 8 7 9 11 10 14 18 16 14 13 14 13 12 12 13 17 19 17 10 11 15 16 16 16 16 15
11 15 11 6 8 9 11 11 11 9 9 8 9 9 10 12 10 12 11 9 8 8 7 8 13 15 18 15 13 15 13 12 13 17 17 16 15 12 11 14 16 15 15 15 15
12 14 11 16 13 10 9 11 12 12 9 8 10 10 11 13 12 12 11 10 9 9 10 10 14 13 12 12 13 14 15 14 15 14 16 14 14 12 14 16 16 15 14 14 14
13 14 12 13 11 11 11 12 12 11 10 11 11 12 11 12 11 13 12 11 13 12 12 11 15 14 18 14 13 15 15 15 14 14 15 14 15 16 15 15 16 17 16 15 15
12 11 10 14 13 14 15 13 13 12 12 11 12 13 13 11 11 10 10 11 11 13 14 14 15 17 17 14 17 19 17 16 15 15 15 18 18 18 18 15 14 15 14 14 15